Weather History for Ypsilanti, MI

Change the Weather History Date:

Wednesday, July 10, 2013

  Actual Average Record
Temperature  
Mean Temperature 80 °F -  
Max Temperature 90 °F 85 °F 95 °F (2011)
Min Temperature 68 °F 63 °F 51 °F (1996)
Cooling Degree Days 15    
Growing Degree Days 30 (Base 50)    
Moisture  
Dew Point 70 °F    
Average Humidity 73    
Maximum Humidity 89    
Minimum Humidity 49    
Precipitation  
Precipitation 0.27 in - - ()
Sea Level Pressure  
Sea Level Pressure 29.83 in    
Wind  
Wind Speed 7 mph (WSW)    
Max Wind Speed 20 mph    
Max Gust Speed 25 mph    
Visibility 10 miles    
Events Rain    
Averages and records for this station are not official NWS values.
T = Trace of Precipitation, MM = Missing Value Source: NWS Daily Summary

Daily Weather History Graph

Daily Weather History Graph

Search for Another Location

Airport:

Trip Planner

Search our weather history database for the weather conditions in past years. The results will help you decide how hot, cold, wet, or windy it might be!

Date:

Astronomy

Jul. 10, 2013 Rise Set
Actual Time 6:07 AM EDT 9:11 PM EDT
Civil Twilight 5:33 AM EDT 9:45 PM EDT
Nautical Twilight 4:50 AM EDT 10:28 PM EDT
Astronomical Twilight 3:58 AM EDT 11:19 PM EDT
Moon 8:30 AM EDT (7/10) 10:16 PM EDT (7/10)
Length of Visible Light 16h 11m
Length of Day
15h 04m
Waxing Crescent, 5% of the Moon is Illuminated
Jul 10
Waxing Crescent
Jul 15
First Quarter
Jul 22
Full
Jul 29
Last Quarter
Aug 6
New

Hourly Weather History & Observations

Time (EDT) Temp. Heat Index Dew Point Humidity Pressure Visibility Wind Dir Wind Speed Gust Speed Precip Events Conditions
12:44 AM 75.2 °F - 71.6 °F 89% 29.89 in 10.0 mi Calm Calm - 0.00 in   Mostly Cloudy
12:53 AM 75.9 °F - 71.1 °F 85% 29.86 in 10.0 mi South 3.5 mph - 0.00 in   Overcast
1:53 AM 77.0 °F - 72.0 °F 84% 29.83 in 10.0 mi SW 9.2 mph - N/A   Overcast
2:53 AM 77.0 °F - 72.0 °F 84% 29.83 in 10.0 mi SSW 6.9 mph - N/A   Mostly Cloudy
3:53 AM 77.0 °F - 72.0 °F 84% 29.83 in 10.0 mi SW 8.1 mph - 0.01 in   Partly Cloudy
4:53 AM 77.0 °F - 72.0 °F 84% 29.82 in 10.0 mi SW 6.9 mph - N/A   Partly Cloudy
5:53 AM 77.0 °F - 72.0 °F 84% 29.82 in 10.0 mi SW 8.1 mph - N/A   Clear
6:22 AM 77.0 °F - 71.6 °F 83% 29.85 in 10.0 mi SSW 8.1 mph - N/A   Scattered Clouds
6:31 AM 77.0 °F - 71.6 °F 83% 29.84 in 10.0 mi SSW 8.1 mph - N/A   Mostly Cloudy
6:53 AM 77.0 °F - 72.0 °F 84% 29.83 in 10.0 mi SW 8.1 mph - N/A   Mostly Cloudy
7:20 AM 78.8 °F - 73.4 °F 83% 29.85 in 10.0 mi SSW 8.1 mph - N/A   Scattered Clouds
7:53 AM 79.0 °F - 73.0 °F 82% 29.83 in 10.0 mi SW 8.1 mph - N/A   Mostly Cloudy
8:07 AM 78.8 °F - 73.4 °F 83% 29.85 in 10.0 mi SW 8.1 mph - N/A   Overcast
8:41 AM 80.6 °F 85.4 °F 73.4 °F 79% 29.85 in 10.0 mi SSW 9.2 mph - N/A   Mostly Cloudy
8:51 AM 80.6 °F 86.2 °F 75.2 °F 84% 29.85 in 10.0 mi SSW 8.1 mph - N/A   Scattered Clouds
8:53 AM 81.0 °F 86.7 °F 75.0 °F 82% 29.83 in 10.0 mi SW 8.1 mph - N/A   Scattered Clouds
9:53 AM 84.0 °F 91.9 °F 75.0 °F 74% 29.83 in 10.0 mi SSW 9.2 mph - N/A   Mostly Cloudy
10:53 AM 86.0 °F 93.8 °F 73.9 °F 67% 29.82 in 10.0 mi West 8.1 mph - N/A   Partly Cloudy
11:40 AM 87.8 °F 97.6 °F 75.2 °F 66% 29.82 in 10.0 mi SW 10.4 mph - N/A   Mostly Cloudy
11:49 AM 87.8 °F 97.6 °F 75.2 °F 66% 29.82 in 10.0 mi SW 6.9 mph - N/A   Scattered Clouds
11:53 AM 88.0 °F 97.5 °F 75.0 °F 65% 29.80 in 10.0 mi WSW 9.2 mph - N/A   Mostly Cloudy
12:08 PM 89.6 °F 99.8 °F 75.2 °F 62% 29.82 in 10.0 mi SW 11.5 mph 16.1 mph N/A   Mostly Cloudy
12:53 PM 89.1 °F 98.0 °F 73.9 °F 61% 29.78 in 10.0 mi WSW 6.9 mph - N/A   Scattered Clouds
1:53 PM 82.9 °F 87.0 °F 70.0 °F 65% 29.79 in 10.0 mi SW 13.8 mph - 0.00 in Rain Light Rain
2:53 PM 75.0 °F - 66.0 °F 73% 29.80 in 10.0 mi WNW 8.1 mph - 0.26 in   Scattered Clouds
3:53 PM 78.1 °F - 68.0 °F 71% 29.80 in 10.0 mi SW 11.5 mph - N/A   Clear
4:53 PM 79.0 °F - 70.0 °F 74% 29.78 in 10.0 mi WSW 15.0 mph 20.7 mph N/A   Clear
5:53 PM 82.0 °F 86.7 °F 72.0 °F 71% 29.77 in 10.0 mi West 12.7 mph - 0.00 in Rain Light Rain
6:53 PM 84.9 °F 86.1 °F 64.0 °F 49% 29.79 in 10.0 mi NW 19.6 mph 25.3 mph 0.00 in   Clear
7:53 PM 82.0 °F 82.7 °F 61.0 °F 49% 29.83 in 10.0 mi NNW 15.0 mph - N/A   Clear
8:53 PM 77.0 °F - 60.1 °F 56% 29.87 in 10.0 mi North 9.2 mph - N/A   Clear
9:53 PM 73.9 °F - 59.0 °F 59% 29.89 in 10.0 mi NNW 10.4 mph - N/A   Clear
10:53 PM 71.1 °F - 57.0 °F 61% 29.92 in 10.0 mi North 4.6 mph - N/A   Clear
11:53 PM 68.0 °F - 57.0 °F 68% 29.93 in 10.0 mi NNW 5.8 mph - N/A   Clear